Location: Carrizal
(9.8472°N, 67.3428°W)
Time: 19:08:32
(UTC+00:00)

Cosmos 2369 Rocket - Pass Details

Date: 13 April 2024
Orbit: 830 x 850 km, 71.0° (Epoch: 22 May)

Event Time Altitude Azimuth Distance (km) Brightness Sun altitude
Rises 23:18:04 0° 205° (SSW) 3,405 5.5 -10.1°
Reaches altitude 10° 23:20:33 10° 210° (SSW) 2,469 4.9 -10.7°
Maximum altitude 23:26:05 54° 286° (WNW) 1,017 3.1 -12.0°
Drops below altitude 10° 23:31:36 10° 3° (N) 2,461 4.7 -13.4°
Sets 23:34:06 0° 8° (N) 3,392 5.4 -14.0°
